BREEZE-M DEB, 37200

Orbit data source: Space-Track

BREEZE-M DEB, 37200 is space debris in HEO originally from a launch on Fri, 14 Mar 2008 UTC launched from the Tyuratam Missile And Space Complex (TTMTR). Debris objects in space refer to the collection of defunct objects orbiting the Earth. Examples of debris include non-operational satellites, rocket bodies, and fragments generated from explosions, collisions, or faulty payload assembly.

Loading next visibility...
Identifier
37200, 2008-011E
Orbit
HEO
Country
Flag of CISCIS
Related business
Manufacturer
Unknown
Mission
Spacecraft
Bus & Motor
Unknown
Mass
Unknown
Launch date (UTC)
2008-03-14 (18 years ago)
Launch vehicle
Unknown
Launch site
Tyuratam Missile And Space Complex (TTMTR)
Object type
Payload
Rocket body
Debris
Shape & HBR
Unknown shape, 1.4 m
Radar Cross Section
Large (>1 m²)

Expand to show TLE details & history
Last TLE update: 3 days ago

TLE from 3 days ago
0 BREEZE-M DEB
1 37200U 08011E   26171.16190780  .00000073  00000-0  00000-0 0  9991
2 37200  48.3585 194.4020 6253532  78.1845 354.3952  3.02110267173055
Epoch: 2026-06-20T03:53Z
TLE epoch observation values (Epoch: 2026-06-20T03:53:08.833Z)
Latitude
33.89034°
Longitude
-95.78784°
Altitude
1,602.028 km
Speed
8.959 km/s
True Right ascension
15h 23m 31s
True Declination
33° 44' 53"
Sunlit
Object was in daylight at epoch
Visualization orbit readout
Latitude
Unknown
Longitude
Unknown
Altitude
Unknown
Speed
Unknown
Apparent Right ascension
Unknown
Apparent Declination
Unknown
Sunlit
N/A
Visualization observer readout
Local Sidereal Time
05:02:42
Azimuth
Unknown
Elevation
Unknown
Doppler factor
Unknown
Orbital elements
Apogee altitude
26,475.909 km
Perigee altitude
1,194.779 km
Semi-major axis
20,213.481 km
Eccentricity
0.62535
Inclination
48.3585°
RAAN
194.402°
Arg. of periapsis
78.1845°
True anomaly
329.93809°
Mean anomaly
354.3952°
Eccentric anomaly
345.30766°
Mean motion
0.75523 °/min
Orbital period
476.67 mins
BSTAR
0
Loading maneuver chart data...
Computing Atmospheric mass density...
Loading historical data...
Loading historical data...
Loading historical data...
Loading historical data...
Loading historical data...
Loading historical data...
Loading historical data...

Documentation

Showing up to 5 results
|